Fort Myers, FL

9:35 AM EDT on July 26, 2016 (GMT -0400)
Southwest Florida International

Weather History for KRSW - December, 2013

Change the Weather History Date:

Saturday, December 14, 2013

  Actual Average Record
Temperature  
Mean Temperature 74 °F -  
Max Temperature 84 °F 76 °F 87 °F (1967)
Min Temperature 63 °F 56 °F 30 °F (1962)
Cooling Degree Days 8    
Growing Degree Days 24 (Base 50)    
Moisture  
Dew Point 65 °F    
Average Humidity 78    
Maximum Humidity 97    
Minimum Humidity 51    
Precipitation  
Precipitation 0.00 in - - ()
Sea Level Pressure  
Sea Level Pressure 30.03 in    
Wind  
Wind Speed 7 mph (SSE)    
Max Wind Speed 14 mph    
Max Gust Speed -    
Visibility 10 miles    
Events      
Averages and records for this station are not official NWS values.
T = Trace of Precipitation, MM = Missing Value Source: NWS Daily Summary

Daily Weather History Graph

Daily Weather History Graph

Search for Another Location

Airport or City:

Trip Planner

Search our weather history database for the weather conditions in past years. The results will help you decide how hot, cold, wet, or windy it might be!

Date:

Astronomy

Dec. 14, 2013 Rise Set
Actual Time 7:07 AM EST 5:36 PM EST
Civil Twilight 6:41 AM EST 6:01 PM EST
Nautical Twilight 6:12 AM EST 6:30 PM EST
Astronomical Twilight 5:44 AM EST 6:59 PM EST
Moon 3:49 PM EST (12/14) 4:36 AM EST (12/14)
Length of Visible Light 11h 20m
Length of Day
10h 29m
Waxing Gibbous, 93% of the Moon is Illuminated
Dec 14
Waxing Gibbous
Dec 17
Full
Dec 25
Last Quarter
Jan 1
New
Jan 7
First Quarter

Hourly Weather History & Observations

Time (EST) Temp. Heat Index Dew Point Humidity Pressure Visibility Wind Dir Wind Speed Gust Speed Precip Events Conditions
12:53 AM 63.0 °F - 60.1 °F 90% 30.09 in 10.0 mi ENE 6.9 mph - N/A   Clear
1:53 AM 63.0 °F - 60.1 °F 90% 30.08 in 10.0 mi ENE 3.5 mph - N/A   Clear
2:53 AM 63.0 °F - 61.0 °F 93% 30.06 in 10.0 mi East 5.8 mph - N/A   Scattered Clouds
3:53 AM 63.0 °F - 61.0 °F 93% 30.05 in 10.0 mi East 4.6 mph - N/A   Clear
4:53 AM 64.0 °F - 62.1 °F 93% 30.04 in 10.0 mi East 5.8 mph - N/A   Clear
5:53 AM 63.0 °F - 61.0 °F 93% 30.05 in 10.0 mi East 5.8 mph - N/A   Partly Cloudy
6:53 AM 64.9 °F - 64.0 °F 97% 30.06 in 10.0 mi East 5.8 mph - N/A   Clear
7:53 AM 66.9 °F - 64.9 °F 93% 30.06 in 10.0 mi ESE 5.8 mph - N/A   Clear
8:53 AM 72.0 °F - 68.0 °F 87% 30.08 in 10.0 mi SE 8.1 mph - N/A   Clear
9:53 AM 77.0 °F - 68.0 °F 74% 30.09 in 10.0 mi SE 12.7 mph - N/A   Clear
10:53 AM 81.0 °F 83.8 °F 68.0 °F 65% 30.07 in 10.0 mi SE 12.7 mph - N/A   Scattered Clouds
11:53 AM 80.1 °F 82.3 °F 66.9 °F 64% 30.04 in 10.0 mi SSE 9.2 mph - N/A   Mostly Cloudy
12:53 PM 82.9 °F 85.0 °F 66.0 °F 56% 30.00 in 10.0 mi South 12.7 mph - N/A   Partly Cloudy
1:53 PM 84.0 °F 86.3 °F 66.0 °F 55% 29.97 in 10.0 mi South 10.4 mph - N/A   Scattered Clouds
2:53 PM 84.0 °F 85.4 °F 64.0 °F 51% 29.96 in 10.0 mi South 13.8 mph - N/A   Partly Cloudy
3:53 PM 84.0 °F 86.3 °F 66.0 °F 55% 29.97 in 10.0 mi SSW 11.5 mph - N/A   Mostly Cloudy
4:53 PM 79.0 °F - 68.0 °F 69% 29.98 in 10.0 mi SW 8.1 mph - N/A   Clear
5:53 PM 78.1 °F - 66.9 °F 68% 29.99 in 10.0 mi South 8.1 mph - N/A   Clear
6:53 PM 75.9 °F - 66.9 °F 74% 30.00 in 10.0 mi South 8.1 mph - N/A   Mostly Cloudy
7:53 PM 75.9 °F - 68.0 °F 76% 30.01 in 10.0 mi South 6.9 mph - N/A   Overcast
8:53 PM 75.0 °F - 68.0 °F 79% 30.01 in 10.0 mi South 6.9 mph - N/A   Partly Cloudy
9:53 PM 73.9 °F - 69.1 °F 85% 30.00 in 10.0 mi SSW 6.9 mph - N/A   Mostly Cloudy
10:53 PM 72.0 °F - 68.0 °F 87% 30.00 in 10.0 mi SSE 4.6 mph - N/A   Clear
11:53 PM 73.0 °F - 69.1 °F 87% 29.99 in 10.0 mi South 8.1 mph - N/A   Clear